Digne-les-Bains

France     44˚05′36″N   6˚14′09″E
temp.,
°C
wind,
m/s
gust,
m/s
humid.,
%
clouds,
%
prec.,
mm/h
press.,
hPa
HPBL,
m
3 december, thu
thu301:00−2˚nne128513 0.0 101027
04:00−2˚nne22800 0.0 100930
07:00−3˚n11754 0.0 100924
10:00+2˚nnw125683 0.0 1009241
13:00+6˚wnw114741 0.0 1007638
16:00+3˚w11593 0.0 100562
19:00e127226 0.0 100522
22:00+1˚ese2278100 0.0 100341
4 december, fri
fri401:00+2˚e3581100 0.0 1000244
04:00+2˚e3685100 0.8 996365
07:00+1˚e3696100 7.0 994293
10:00+1˚ese2398100 10.4 992160
13:00+5˚sse498899 11.0 9921147
16:00+3˚se2697100 1.8 991469
19:00+2˚e2498100 5.7 991203
22:00+1˚s119996 0.7 992129
5 december, sat
sat501:00+1˚sw119998 5.3 993123
04:00−1˚ne229894 0.1 99594
07:00−3˚ne228984 0.1 99625
10:00ene1180100 0.0 99679
13:00+3˚nw117490 0.0 996414
16:00+2˚se118367 0.0 99622
19:00−2˚ese118983 0.0 99921
22:00−4˚ene228733 0.0 100029
6 december, sun
sun601:00−4˚e228522 0.0 100031
04:00−5˚e22780 0.0 100132
07:00−4˚ene22735 0.0 100043
10:00ene126667 0.0 1000109
13:00+4˚wnw117057 0.0 998572
16:00+1˚wnw228880 0.1 998117
19:00−1˚n229788 0.4 999162
22:00−3˚nne119469 0.0 100185
7 december, mon
mon701:00−4˚ne128537 0.0 100125
04:00−5˚nne118242 0.0 100222
07:00−5˚ne128034 0.0 100324
10:00−1˚n12683 0.0 1004183
13:00+2˚nw125833 0.0 1005504
16:00+1˚nw11728 0.0 100644
19:00−4˚ne22874 0.0 100833
22:00−4˚ne227954 0.0 101030